Regional Weather Roundup
Issued by NWS

Home | Current Version | Previous Version | Text Only | Print | Product List | Glossary On
Versions: 1 2 3 4 5 6 7 8 9 10 11 12 13 14 15 16 17 18 19 20 21 22 23 24 25 26 27 28 29 30 31 32 33 34 35 36 37 38 39 40 41 42 43 44 45 46 47 48 49 50
000
ASUS43 KLOT 310208
RWRIL

ILLINOIS REGIONAL WEATHER ROUNDUP
NATIONAL WEATHER SERVICE CHICAGO/ROMEOVILLE IL
900 PM CDT MON MAY 30 2016

NOTE: "FAIR" INDICATES FEW OR NO CLOUDS BELOW 12,000 FEET WITH NO
SIGNIFICANT WEATHER AND/OR OBSTRUCTIONS TO VISIBILITY.

* THESE STATIONS ARE NOT UNDER NWS QUALITY CONTROL. THEY ALSO MAY NOT
  REPORT WEATHER SUCH AS PRECIPITATION OR FOG.

ILZ001-002-007-009-015-016-024-310300-
NORTHWEST ILLINOIS

CITY           SKY/WX    TMP DP  RH WIND       PRES   REMARKS
MOLINE         MOCLDY    76  63  64 CALM      29.93S
STERLING*      PTCLDY    75  60  59 CALM      29.96
SAVANNA*       CLEAR     75  60  58 NE3       29.94S
$$

ILZ003-004-008-010-011-017-018-310300-
NORTH CENTRAL ILLINOIS

CITY           SKY/WX    TMP DP  RH WIND       PRES   REMARKS
ROCKFORD       CLOUDY    76  53  44 NE3       29.98S
FREEPORT*      CLOUDY    73  52  46 NE3       29.98S
ROCHELLE*      CLOUDY    76  53  44 NE5       29.97R
DE KALB*       CLOUDY    75  54  48 CALM      29.98R
$$

ILZ005-006-012>014-019>023-310300-
NORTHEAST ILLINOIS

CITY           SKY/WX    TMP DP  RH WIND       PRES   REMARKS
CHICAGO-OHARE  MOCLDY    73  55  53 E7        29.97R
CHICAGO-MIDWAY CLOUDY    74  54  49 E9        29.97R
AURORA         CLOUDY    78  60  53 CALM      29.96S
LANSING*       MOCLDY    74  56  52 NE6       29.97S
JOLIET*        MOCLDY    75  62  65 CALM      29.95S
WAUKEGAN       CLEAR     63  57  81 E5        29.98R
DUPAGE AIRPORT CLOUDY    73  54  51 E6        29.96R
KANKAKEE*      CLOUDY    74  56  52 SW3       29.96S
WHEELING       CLOUDY    70  54  56 E3        29.99R
MORRIS*        MOCLDY    78  57  48 CALM      29.95R
ROMEOVILLE*    CLOUDY    76  55  47 E8        29.96S
NORTHERLY ISL    N/A     65  54  67 MISG        N/A
NORTHERLY ISL    N/A     65  54  67 MISG        N/A
$$

LMZ740>746-310300-
SOUTHERN LAKE MICHIGAN

STATION/POSITION SKY/WX   TEMP    WIND        PRES    VSBY  WAVE
                          AIR SEA DIR/SP/G                  HT/PER
                          (F)     (DEG/KT/KT) (MB)    (MI)  (FT/S)
SOUTHERN BUOY              61 58   80/  6/  6 1015.3R         0
WILMETTE HARBOR            61 60  350/  4/  4   N/A           0
HARRISON CRIB              65     360/  3/  4   N/A
BURNHAM HARBOR             65     360/  3/  5   N/A
CALUMET HARBOR                                1014.3
BURNS HARBOR               67      80/ 10/ 12 1015.2R
MICHIGAN CITY              69      40/ 12/ 12   N/A
MICHIGAN CITY 6N           64 62   80/  4/  4   N/A           0
ST. JOSEPH                 68 65   20/  8/ 10   N/A           1/ 2
$$

ILZ025>027-034>036-040-047-049-050-058-095>099-310300-
WEST-CENTRAL ILLINOIS

CITY           SKY/WX    TMP DP  RH WIND       PRES   REMARKS
QUINCY         CLOUDY    76  64  66 S6        29.95F
GALESBURG*     CLEAR     75  64  67 SW5       29.96S
MACOMB*        PTCLDY    75  65  72 CALM      29.98S
JACKSONVILLE*  CLOUDY    76  58  54 S7        29.97S
PITTSFIELD*    CLOUDY    76  64  67 S8        29.98S
$$

ILZ028>032-037-038-041>044-048-051>054-059>061-310300-
CENTRAL ILLINOIS

CITY           SKY/WX    TMP DP  RH WIND       PRES   REMARKS
PONTIAC        CLOUDY    76  61  59 CALM      29.97S
BLOOMINGTON    MOCLDY    75  64  68 S8        29.99S
DECATUR        CLOUDY    75  63  66 NE10      29.99R
PEORIA         PTCLDY    75  62  64 CALM      29.96S
LACON*         CLOUDY    74  62  65 CALM      29.95R
LINCOLN*       CLOUDY    78  64  61 CALM      29.97S HX  80
SPRINGFIELD    CLOUDY    76  55  48 SW8       29.97F
TAYLORVILLE    CLOUDY    71  61  72 S5        29.98S
$$

ILZ033-039-045-046-055>057-062-063-310300-
EAST-CENTRAL ILLINOIS

CITY           SKY/WX    TMP DP  RH WIND       PRES   REMARKS
CHAMPAIGN      CLOUDY    70  59  68 W5        29.97F
RANTOUL*       CLOUDY    76  58  54 SW9       29.97F
MATTOON        CLOUDY    72  65  78 SW5       29.98S
PARIS*         CLOUDY    75  62  64 SW3       29.99S
$$

ILZ079-100>102-310300-
SOUTHWEST ILLINOIS

CITY           SKY/WX    TMP DP  RH WIND       PRES   REMARKS
ALTON          MOCLDY    70  59  68 SW6       29.98F
BELLEVILLE     CLOUDY    75  62  63 MISG      29.97F
CAHOKIA*       CLOUDY    76  60  57 CALM      29.98S
SPARTA*        CLOUDY    76  69  78 CALM      29.99S
$$

ILZ064>066-069>071-074>076-080>082-084>086-088>090-092>094-310300-
SOUTH-CENTRAL ILLINOIS

CITY           SKY/WX    TMP DP  RH WIND       PRES   REMARKS
CARBONDALE     CLOUDY    73  65  75 CALM      29.98S
CAIRO*         CLEAR     74  69  82 CALM      29.97S
EFFINGHAM*     CLOUDY    73  69  88 CALM      29.99F
MARION         CLOUDY    73  66  78 CALM      29.99S
MT. VERNON     CLOUDY    72  64  78 CALM      29.99S
CENTRALIA*     CLOUDY    75  72  88 CALM      29.98S
SALEM*         MOCLDY    76  69  76 CALM      29.98S
METROPOLIS*    PTCLDY    73  69  87 CALM      29.99S
$$

ILZ067-068-072-073-078-083-087-091-310300-
SOUTHEAST ILLINOIS

CITY           SKY/WX    TMP DP  RH WIND       PRES   REMARKS
LAWRENCEVILLE  CLOUDY    76  63  64 NW3       29.98S
FLORA*         CLOUDY    77  66  68 CALM      29.98S
FAIRFIELD*     CLOUDY    74  68  81 CALM      29.97R
HARRISBURG*    CLOUDY    75  68  78 CALM      29.98S
ROBINSON*      CLOUDY    70  64  82 CALM      29.99R
CARMI*         CLOUDY    75  69  81 CALM      29.97S
$$

ABBREVIATIONS USED IN REMARKS
   TC - TEMPERATURE IN CELSIUS
  WCI - WIND CHILL INDEX
   HX - HEAT INDEX
  VSB - VISIBILITY
$$





USA.gov is the U.S. government's official web portal to all federal, state and local government web resources and services.